RYR0599 GCLP-LEVC

Flight info

Callsign RYR0599
Flight time N/A
Altitude 38000
Route KORAL UG5 SONSO DCT NIRAL UN871 OSDAM UM985 BARPA M985 PIMOS M445 ETURA T252 XEBAR M985 ASTRO
Aircraft B38M/M-SDE1FGHILORVWXY/HB1

Departure

Time 2026-04-28 09:59
Airport Gran Canaria Airport (GCLP)

Arrival

Time N/A
Airport Valencia Airport (LEVC)
Time Latitude Longitude Altitude Speed Heading
2026-04-28 09:32 27.92998 -15.39024 86 ft 0 kts 291°
2026-04-28 09:47 27.92994 -15.39013 89 ft 4 kts 290°
2026-04-28 09:47 27.92987 -15.38986 87 ft 3 kts 282°
2026-04-28 09:48 27.92984 -15.38963 85 ft 4 kts 265°
2026-04-28 09:48 27.92989 -15.38949 85 ft 2 kts 223°
2026-04-28 09:48 27.92997 -15.38942 87 ft 2 kts 198°
2026-04-28 09:48 27.93005 -15.38939 86 ft 0 kts 199°
2026-04-28 09:51 27.92992 -15.38944 87 ft 3 kts 201°
2026-04-28 09:52 27.92963 -15.38957 83 ft 5 kts 201°
2026-04-28 09:52 27.92925 -15.38974 83 ft 6 kts 202°
2026-04-28 09:52 27.92888 -15.38991 87 ft 6 kts 201°
2026-04-28 09:52 27.92849 -15.39009 86 ft 6 kts 202°
2026-04-28 09:53 27.92813 -15.39024 89 ft 6 kts 201°
2026-04-28 09:53 27.92777 -15.39041 88 ft 6 kts 202°
2026-04-28 09:53 27.92743 -15.39056 93 ft 5 kts 203°
2026-04-28 09:53 27.92712 -15.39072 91 ft 5 kts 203°
2026-04-28 09:54 27.92684 -15.39086 92 ft 4 kts 204°
2026-04-28 09:54 27.92662 -15.39096 92 ft 3 kts 200°
2026-04-28 09:54 27.92639 -15.39105 94 ft 4 kts 199°
2026-04-28 09:54 27.92613 -15.39115 95 ft 4 kts 198°
2026-04-28 09:55 27.92587 -15.39124 94 ft 4 kts 197°
2026-04-28 09:55 27.92558 -15.39134 94 ft 5 kts 197°
2026-04-28 09:55 27.92520 -15.39149 98 ft 5 kts 201°
2026-04-28 09:55 27.92482 -15.39167 98 ft 7 kts 202°
2026-04-28 09:56 27.92433 -15.39190 99 ft 7 kts 203°
2026-04-28 09:56 27.92382 -15.39213 101 ft 8 kts 201°
2026-04-28 09:56 27.92334 -15.39235 101 ft 8 kts 201°
2026-04-28 09:56 27.92286 -15.39256 102 ft 8 kts 202°
2026-04-28 09:57 27.92228 -15.39283 101 ft 10 kts 202°
2026-04-28 09:57 27.92143 -15.39305 100 ft 15 kts 185°
2026-04-28 09:57 27.92053 -15.39301 95 ft 13 kts 176°
2026-04-28 09:57 27.91985 -15.39297 92 ft 7 kts 176°
2026-04-28 09:58 27.91926 -15.39273 93 ft 8 kts 128°
2026-04-28 09:58 27.91925 -15.39225 92 ft 6 kts 55°
2026-04-28 09:58 27.91955 -15.39205 90 ft 0 kts 21°
2026-04-28 09:59 27.92103 -15.39141 88 ft 59 kts 21°
2026-04-28 09:59 27.92745 -15.38859 68 ft 136 kts 21°
2026-04-28 09:59 27.93754 -15.38394 453 ft 167 kts 21°
2026-04-28 09:59 27.94819 -15.37899 1438 ft 164 kts 19°
2026-04-28 10:00 27.95886 -15.37443 2397 ft 167 kts 18°
2026-04-28 10:00 27.97018 -15.36959 3116 ft 180 kts 18°
2026-04-28 10:00 27.98248 -15.36433 3686 ft 202 kts 18°
2026-04-28 10:00 27.99653 -15.35837 3799 ft 224 kts 19°
2026-04-28 10:01 28.01136 -15.35198 3904 ft 236 kts 19°
2026-04-28 10:01 28.02721 -15.34516 3958 ft 249 kts 19°
2026-04-28 10:01 28.04356 -15.33812 4014 ft 254 kts 20°
2026-04-28 10:01 28.06017 -15.33090 4045 ft 255 kts 20°
2026-04-28 10:02 28.07673 -15.32370 4062 ft 256 kts 20°
2026-04-28 10:02 28.09335 -15.31649 4065 ft 256 kts 20°
2026-04-28 10:02 28.10999 -15.30925 4059 ft 256 kts 20°
2026-04-28 10:02 28.12665 -15.30201 4067 ft 257 kts 20°
2026-04-28 10:03 28.14191 -15.29163 4544 ft 260 kts 45°
2026-04-28 10:03 28.15273 -15.27534 5795 ft 259 kts 52°
2026-04-28 10:03 28.16330 -15.25839 6731 ft 268 kts 53°
2026-04-28 10:03 28.17403 -15.24069 7634 ft 275 kts 53°
2026-04-28 10:04 28.18496 -15.22243 8492 ft 285 kts 53°
2026-04-28 10:04 28.19612 -15.20359 9405 ft 291 kts 54°
2026-04-28 10:04 28.20746 -15.18430 10229 ft 300 kts 54°
2026-04-28 10:04 28.21928 -15.16411 10815 ft 316 kts 54°
2026-04-28 10:05 28.23171 -15.14284 11400 ft 330 kts 54°
2026-04-28 10:05 28.24453 -15.12088 12143 ft 336 kts 54°
2026-04-28 10:05 28.25744 -15.09873 13031 ft 339 kts 54°
2026-04-28 10:05 28.27056 -15.07623 13810 ft 344 kts 54°
2026-04-28 10:06 28.28367 -15.05374 14548 ft 348 kts 54°
2026-04-28 10:06 28.29708 -15.03071 15254 ft 352 kts 54°
2026-04-28 10:06 28.31066 -15.00736 15956 ft 356 kts 54°
2026-04-28 10:06 28.32442 -14.98370 16644 ft 361 kts 54°
2026-04-28 10:07 28.33833 -14.95978 17340 ft 365 kts 54°
2026-04-28 10:07 28.35234 -14.93565 18012 ft 369 kts 54°
2026-04-28 10:07 28.36652 -14.91122 18623 ft 373 kts 54°
2026-04-28 10:07 28.38085 -14.88653 19175 ft 377 kts 54°
2026-04-28 10:08 28.39533 -14.86156 19745 ft 380 kts 54°
2026-04-28 10:08 28.40994 -14.83636 20291 ft 384 kts 54°
2026-04-28 10:08 28.42473 -14.81081 20831 ft 387 kts 54°
2026-04-28 10:08 28.43959 -14.78514 21365 ft 391 kts 54°
2026-04-28 10:09 28.45460 -14.75920 21890 ft 395 kts 54°
2026-04-28 10:09 28.46975 -14.73299 22424 ft 398 kts 54°
2026-04-28 10:09 28.48505 -14.70650 22916 ft 402 kts 54°
2026-04-28 10:09 28.50041 -14.67991 23430 ft 406 kts 54°
2026-04-28 10:10 28.51600 -14.65289 23879 ft 409 kts 54°
2026-04-28 10:10 28.53162 -14.62580 24288 ft 412 kts 54°
2026-04-28 10:10 28.54746 -14.59832 24705 ft 415 kts 54°
2026-04-28 10:10 28.56334 -14.57075 25112 ft 419 kts 54°
2026-04-28 10:11 28.57915 -14.54329 25507 ft 422 kts 53°
2026-04-28 10:11 28.59542 -14.51499 25918 ft 424 kts 53°
2026-04-28 10:11 28.61163 -14.48679 26308 ft 427 kts 53°
2026-04-28 10:11 28.62794 -14.45840 26694 ft 430 kts 53°
2026-04-28 10:12 28.64435 -14.42981 27076 ft 433 kts 53°
2026-04-28 10:12 28.66086 -14.40103 27460 ft 436 kts 53°
2026-04-28 10:12 28.67730 -14.37234 27833 ft 438 kts 53°
2026-04-28 10:12 28.69396 -14.34326 28172 ft 441 kts 53°
2026-04-28 10:13 28.71084 -14.31377 28545 ft 444 kts 53°
2026-04-28 10:13 28.72772 -14.28426 28909 ft 446 kts 53°
2026-04-28 10:13 28.74469 -14.25458 29283 ft 449 kts 53°
2026-04-28 10:13 28.76179 -14.22465 29602 ft 452 kts 53°
2026-04-28 10:14 28.77895 -14.19458 29955 ft 454 kts 53°
2026-04-28 10:14 28.79619 -14.16436 30273 ft 456 kts 53°
2026-04-28 10:14 28.81358 -14.13384 30576 ft 458 kts 53°
2026-04-28 10:14 28.83095 -14.10333 30872 ft 460 kts 53°
2026-04-28 10:15 28.84840 -14.07269 31170 ft 462 kts 53°
2026-04-28 10:15 28.86596 -14.04181 31455 ft 463 kts 53°
2026-04-28 10:15 28.88346 -14.01102 31771 ft 465 kts 53°
2026-04-28 10:15 28.90114 -13.97989 32050 ft 467 kts 54°
2026-04-28 10:16 28.91876 -13.94884 32327 ft 469 kts 54°
2026-04-28 10:16 28.93632 -13.91787 32606 ft 470 kts 54°
2026-04-28 10:16 28.95432 -13.88610 32884 ft 472 kts 54°
2026-04-28 10:16 28.97196 -13.85495 33140 ft 474 kts 54°
2026-04-28 10:17 28.98996 -13.82313 33409 ft 476 kts 54°
2026-04-28 10:17 29.00795 -13.79132 33680 ft 478 kts 54°
2026-04-28 10:17 29.02600 -13.75936 33972 ft 479 kts 54°
2026-04-28 10:17 29.04405 -13.72739 34299 ft 479 kts 54°
2026-04-28 10:18 29.06204 -13.69548 34621 ft 478 kts 54°
2026-04-28 10:18 29.08005 -13.66354 34904 ft 478 kts 54°
2026-04-28 10:18 29.09803 -13.63163 35193 ft 477 kts 54°
2026-04-28 10:18 29.11602 -13.59968 35485 ft 477 kts 54°
2026-04-28 10:19 29.13398 -13.56775 35745 ft 477 kts 54°
2026-04-28 10:19 29.15192 -13.53584 36003 ft 477 kts 54°
2026-04-28 10:19 29.17039 -13.50441 36275 ft 475 kts 51°
2026-04-28 10:19 29.18946 -13.47365 36510 ft 475 kts 51°
2026-04-28 10:20 29.20850 -13.44264 36750 ft 475 kts 52°
2026-04-28 10:20 29.22737 -13.41179 36993 ft 474 kts 52°
2026-04-28 10:20 29.24632 -13.38075 37211 ft 474 kts 52°
2026-04-28 10:20 29.26496 -13.35021 37434 ft 474 kts 52°
2026-04-28 10:21 29.28399 -13.31901 37657 ft 474 kts 52°
2026-04-28 10:21 29.30264 -13.28839 37850 ft 473 kts 52°
2026-04-28 10:21 29.32146 -13.25747 38036 ft 473 kts 52°
2026-04-28 10:21 29.34051 -13.22617 38046 ft 473 kts 52°
2026-04-28 10:22 29.37785 -13.16472 38042 ft 472 kts 52°
2026-04-28 10:22 29.41531 -13.10299 38043 ft 472 kts 52°
2026-04-28 10:23 29.45280 -13.04110 38043 ft 472 kts 52°
2026-04-28 10:23 29.49024 -12.97922 38039 ft 472 kts 52°
2026-04-28 10:24 29.52771 -12.91719 38042 ft 472 kts 52°
2026-04-28 10:24 29.56509 -12.85521 38042 ft 472 kts 52°
2026-04-28 10:25 29.60242 -12.79322 38035 ft 472 kts 52°
2026-04-28 10:25 29.63975 -12.73114 38033 ft 472 kts 52°
2026-04-28 10:26 29.67711 -12.66893 38033 ft 472 kts 52°
2026-04-28 10:26 29.71414 -12.60718 38032 ft 472 kts 52°
2026-04-28 10:27 29.75122 -12.54474 38033 ft 473 kts 53°
2026-04-28 10:27 29.78825 -12.48220 38034 ft 473 kts 53°
2026-04-28 10:28 29.82521 -12.41968 38029 ft 473 kts 53°
2026-04-28 10:29 29.88070 -12.32566 38032 ft 473 kts 53°
2026-04-28 10:29 29.91767 -12.26290 38023 ft 473 kts 53°
2026-04-28 10:30 29.95463 -12.20007 38023 ft 473 kts 53°
2026-04-28 10:30 29.99148 -12.13732 38019 ft 473 kts 53°
2026-04-28 10:31 30.03319 -12.07928 38046 ft 467 kts 41°
2026-04-28 10:31 30.07938 -12.02703 38031 ft 469 kts 41°
2026-04-28 10:32 30.12640 -11.97429 38028 ft 469 kts 41°
2026-04-28 10:32 30.17296 -11.92211 38023 ft 469 kts 41°
2026-04-28 10:33 30.21986 -11.86948 38019 ft 469 kts 41°
2026-04-28 10:33 30.26668 -11.81686 38017 ft 470 kts 41°
2026-04-28 10:34 30.31347 -11.76419 38019 ft 470 kts 41°
2026-04-28 10:34 30.36033 -11.71138 38020 ft 470 kts 41°
2026-04-28 10:35 30.40717 -11.65852 38016 ft 470 kts 41°
2026-04-28 10:35 30.45396 -11.60564 38011 ft 470 kts 41°
2026-04-28 10:36 30.49294 -11.56153 38010 ft 470 kts 42°
2026-04-28 10:36 30.53966 -11.50858 38004 ft 470 kts 42°
2026-04-28 10:37 30.58645 -11.45549 37991 ft 471 kts 42°
2026-04-28 10:37 30.63333 -11.40222 38006 ft 471 kts 42°
2026-04-28 10:38 30.68010 -11.34899 38017 ft 471 kts 42°
2026-04-28 10:38 30.72688 -11.29568 38005 ft 471 kts 42°
2026-04-28 10:39 30.77360 -11.24236 38003 ft 471 kts 42°
2026-04-28 10:39 30.82036 -11.18891 38001 ft 471 kts 43°
2026-04-28 10:40 30.86674 -11.13583 38002 ft 471 kts 43°
2026-04-28 10:40 30.91341 -11.08234 37999 ft 471 kts 43°
2026-04-28 10:41 30.96005 -11.02881 38005 ft 471 kts 43°
2026-04-28 10:41 31.00667 -10.97521 38000 ft 471 kts 43°
2026-04-28 10:42 31.05338 -10.92144 37994 ft 471 kts 43°
2026-04-28 10:42 31.09994 -10.86776 37999 ft 471 kts 43°
2026-04-28 10:43 31.14652 -10.81397 37990 ft 471 kts 43°
2026-04-28 10:43 31.19304 -10.76019 37995 ft 471 kts 43°
2026-04-28 10:44 31.23962 -10.70625 38003 ft 471 kts 44°
2026-04-28 10:44 31.28606 -10.65239 37993 ft 471 kts 44°
2026-04-28 10:45 31.33253 -10.59842 37992 ft 471 kts 44°
2026-04-28 10:45 31.37905 -10.54432 37988 ft 471 kts 44°
2026-04-28 10:46 31.42549 -10.49023 37992 ft 471 kts 44°
2026-04-28 10:46 31.47194 -10.43604 37985 ft 471 kts 44°
2026-04-28 10:47 31.51802 -10.38221 37994 ft 471 kts 44°
2026-04-28 10:47 31.56441 -10.32793 37995 ft 471 kts 44°
2026-04-28 10:48 31.61109 -10.27324 37987 ft 471 kts 45°
2026-04-28 10:48 31.65743 -10.21885 37990 ft 471 kts 45°
2026-04-28 10:49 31.70336 -10.16487 37982 ft 471 kts 45°
2026-04-28 10:49 31.74975 -10.11027 37977 ft 471 kts 45°
2026-04-28 10:50 31.79604 -10.05572 37978 ft 472 kts 45°
2026-04-28 10:50 31.84235 -10.00105 37982 ft 471 kts 45°
2026-04-28 10:51 31.88855 -9.94642 37984 ft 471 kts 45°
2026-04-28 10:51 31.93480 -9.89166 37974 ft 471 kts 45°
2026-04-28 10:52 31.98074 -9.83718 37974 ft 472 kts 45°
2026-04-28 10:52 32.02720 -9.78200 37983 ft 471 kts 46°
2026-04-28 10:53 32.07302 -9.72749 37976 ft 472 kts 46°
2026-04-28 10:53 32.11915 -9.67254 37980 ft 472 kts 46°
2026-04-28 10:54 32.16533 -9.61744 37980 ft 472 kts 46°
2026-04-28 10:54 32.21145 -9.56232 37982 ft 471 kts 46°
2026-04-28 10:55 32.25754 -9.50717 37972 ft 471 kts 46°
2026-04-28 10:55 32.30356 -9.45200 37982 ft 471 kts 46°
2026-04-28 10:56 32.34950 -9.39686 37981 ft 471 kts 46°
2026-04-28 10:56 32.39547 -9.34158 37979 ft 471 kts 46°
2026-04-28 10:57 32.44155 -9.28610 37975 ft 471 kts 46°
2026-04-28 10:57 32.48719 -9.23105 37968 ft 472 kts 46°
2026-04-28 10:58 32.53310 -9.17559 37963 ft 471 kts 46°
2026-04-28 10:58 32.57895 -9.12012 37966 ft 471 kts 47°
2026-04-28 10:59 32.62489 -9.06446 37960 ft 471 kts 47°
2026-04-28 10:59 32.67066 -9.00891 37963 ft 472 kts 47°
2026-04-28 11:00 32.71652 -8.95318 37957 ft 472 kts 47°
2026-04-28 11:00 32.76233 -8.89741 37958 ft 472 kts 47°
2026-04-28 11:01 32.80820 -8.84149 37953 ft 472 kts 47°
2026-04-28 11:01 32.85401 -8.78554 37956 ft 472 kts 47°
2026-04-28 11:02 32.89973 -8.72962 37951 ft 472 kts 47°
2026-04-28 11:02 32.94551 -8.67356 37947 ft 472 kts 47°
2026-04-28 11:03 32.99125 -8.61747 37945 ft 472 kts 47°
2026-04-28 11:03 33.03700 -8.56127 37944 ft 472 kts 47°
2026-04-28 11:04 33.08272 -8.50502 37929 ft 472 kts 47°
2026-04-28 11:04 33.12844 -8.44868 37942 ft 473 kts 47°
2026-04-28 11:05 33.17414 -8.39228 37951 ft 473 kts 47°
2026-04-28 11:05 33.22541 -8.34438 37958 ft 473 kts 33°
2026-04-28 11:06 33.28094 -8.30195 37954 ft 475 kts 33°
2026-04-28 11:06 33.33684 -8.25973 37937 ft 475 kts 33°
2026-04-28 11:07 33.39277 -8.21753 37940 ft 475 kts 33°
2026-04-28 11:07 33.44856 -8.17537 37931 ft 475 kts 33°
2026-04-28 11:08 33.50450 -8.13303 37932 ft 475 kts 33°
2026-04-28 11:08 33.56022 -8.09079 37928 ft 475 kts 33°
2026-04-28 11:09 33.61617 -8.04832 37933 ft 475 kts 33°
2026-04-28 11:09 33.67191 -8.00593 37929 ft 475 kts 33°
2026-04-28 11:10 33.72775 -7.96340 37935 ft 475 kts 33°
2026-04-28 11:10 33.78354 -7.92085 37927 ft 475 kts 33°
2026-04-28 11:11 33.83899 -7.87849 37932 ft 475 kts 33°
2026-04-28 11:11 33.89478 -7.83580 37927 ft 475 kts 33°
2026-04-28 11:12 33.95055 -7.79306 37926 ft 475 kts 33°
2026-04-28 11:12 34.00627 -7.75029 37924 ft 475 kts 33°
2026-04-28 11:13 34.06189 -7.70753 37926 ft 475 kts 33°
2026-04-28 11:13 34.11766 -7.66459 37925 ft 475 kts 33°
2026-04-28 11:14 34.17330 -7.62168 37929 ft 475 kts 33°
2026-04-28 11:14 34.22900 -7.57865 37926 ft 475 kts 33°
2026-04-28 11:15 34.28464 -7.53560 37928 ft 475 kts 33°
2026-04-28 11:15 34.34027 -7.49250 37923 ft 475 kts 33°
2026-04-28 11:16 34.39596 -7.44928 37922 ft 475 kts 33°
2026-04-28 11:16 34.45109 -7.40642 37920 ft 474 kts 33°
2026-04-28 11:17 34.50660 -7.36320 37928 ft 474 kts 33°
2026-04-28 11:17 34.56215 -7.31987 37914 ft 474 kts 33°
2026-04-28 11:18 34.61755 -7.27660 37920 ft 474 kts 33°
2026-04-28 11:18 34.67304 -7.23318 37923 ft 474 kts 33°
2026-04-28 11:19 34.72833 -7.18985 37928 ft 473 kts 33°
2026-04-28 11:19 34.78373 -7.14637 37928 ft 473 kts 33°
2026-04-28 11:20 34.83893 -7.10297 37927 ft 473 kts 33°
2026-04-28 11:20 34.89383 -7.05974 37921 ft 472 kts 33°
2026-04-28 11:21 34.94923 -7.01605 37925 ft 472 kts 33°
2026-04-28 11:21 35.00399 -6.97278 37907 ft 471 kts 33°
2026-04-28 11:22 35.05907 -6.92920 37913 ft 471 kts 33°
2026-04-28 11:22 35.11399 -6.88566 37917 ft 471 kts 33°
2026-04-28 11:23 35.16888 -6.84210 37910 ft 471 kts 33°
2026-04-28 11:23 35.22373 -6.79850 37914 ft 470 kts 33°
2026-04-28 11:24 35.27854 -6.75485 37908 ft 470 kts 33°
2026-04-28 11:24 35.33216 -6.70922 37887 ft 468 kts 45°
2026-04-28 11:24 35.35274 -6.67864 37909 ft 465 kts 58°
2026-04-28 11:25 35.37051 -6.64544 37899 ft 467 kts 59°
2026-04-28 11:25 35.40447 -6.57751 37905 ft 467 kts 60°
2026-04-28 11:26 35.43743 -6.50896 37905 ft 467 kts 60°
2026-04-28 11:26 35.47179 -6.44148 37909 ft 467 kts 59°
2026-04-28 11:27 35.50611 -6.37368 37908 ft 467 kts 59°
2026-04-28 11:27 35.54025 -6.30602 37907 ft 467 kts 59°
2026-04-28 11:28 35.57440 -6.23822 37914 ft 466 kts 59°
2026-04-28 11:28 35.60841 -6.17057 37923 ft 466 kts 59°
2026-04-28 11:29 35.64247 -6.10266 37936 ft 466 kts 59°
2026-04-28 11:29 35.67639 -6.03492 37937 ft 466 kts 59°
2026-04-28 11:30 35.70458 -5.97850 37939 ft 466 kts 59°
2026-04-28 11:30 35.75180 -5.87406 37944 ft 465 kts 65°
2026-04-28 11:31 35.78011 -5.80246 37942 ft 465 kts 65°
2026-04-28 11:31 35.81284 -5.71901 37937 ft 465 kts 65°
2026-04-28 11:32 35.83669 -5.65891 37939 ft 466 kts 64°
2026-04-28 11:32 35.86569 -5.58749 37946 ft 466 kts 65°
2026-04-28 11:33 35.89437 -5.51645 37956 ft 465 kts 65°
2026-04-28 11:33 35.92314 -5.44502 37969 ft 465 kts 65°
2026-04-28 11:34 35.95183 -5.37365 37965 ft 464 kts 65°
2026-04-28 11:34 35.98047 -5.30222 37962 ft 464 kts 65°
2026-04-28 11:35 36.00942 -5.23122 37966 ft 463 kts 63°
2026-04-28 11:35 36.03903 -5.16076 37968 ft 462 kts 63°
2026-04-28 11:36 36.06847 -5.09028 37966 ft 461 kts 63°
2026-04-28 11:36 36.09781 -5.01987 37964 ft 460 kts 63°
2026-04-28 11:37 36.12710 -4.94942 37968 ft 460 kts 63°
2026-04-28 11:37 36.16061 -4.88247 38087 ft 458 kts 46°
2026-04-28 11:38 36.18226 -4.85373 37914 ft 453 kts 47°
2026-04-28 11:38 36.20380 -4.82523 37992 ft 453 kts 46°
2026-04-28 11:38 36.24724 -4.76867 37968 ft 453 kts 46°
2026-04-28 11:39 36.29079 -4.71233 37968 ft 452 kts 46°
2026-04-28 11:39 36.33424 -4.65607 37968 ft 452 kts 46°
2026-04-28 11:40 36.37740 -4.60009 37970 ft 452 kts 46°
2026-04-28 11:40 36.42083 -4.54368 37969 ft 452 kts 46°
2026-04-28 11:41 36.46413 -4.48732 37967 ft 451 kts 46°
2026-04-28 11:41 36.50748 -4.43081 37967 ft 451 kts 46°
2026-04-28 11:42 36.55075 -4.37430 37969 ft 451 kts 46°
2026-04-28 11:42 36.59396 -4.31777 37968 ft 451 kts 46°
2026-04-28 11:43 36.63707 -4.26128 37966 ft 450 kts 46°
2026-04-28 11:43 36.68016 -4.20471 37969 ft 450 kts 46°
2026-04-28 11:44 36.72319 -4.14812 37968 ft 450 kts 46°
2026-04-28 11:44 36.76619 -4.09149 37968 ft 450 kts 46°
2026-04-28 11:45 36.80892 -4.03510 37970 ft 450 kts 46°
2026-04-28 11:45 36.85183 -3.97838 37962 ft 450 kts 46°
2026-04-28 11:46 36.89481 -3.92146 37960 ft 450 kts 46°
2026-04-28 11:46 36.93772 -3.86453 37956 ft 450 kts 46°
2026-04-28 11:47 36.98055 -3.80762 37964 ft 450 kts 47°
2026-04-28 11:47 37.02352 -3.75041 37963 ft 450 kts 47°
2026-04-28 11:48 37.06633 -3.69335 37965 ft 450 kts 47°
2026-04-28 11:48 37.10930 -3.63624 37964 ft 450 kts 46°
2026-04-28 11:49 37.15272 -3.57981 37967 ft 450 kts 46°
2026-04-28 11:49 37.19609 -3.52388 37963 ft 450 kts 46°
2026-04-28 11:50 37.23967 -3.46751 37968 ft 450 kts 46°
2026-04-28 11:50 37.28330 -3.41097 37964 ft 450 kts 46°
2026-04-28 11:51 37.32685 -3.35444 37968 ft 450 kts 46°
2026-04-28 11:51 37.37035 -3.29787 37961 ft 450 kts 46°
2026-04-28 11:52 37.41379 -3.24127 37957 ft 450 kts 46°
2026-04-28 11:52 37.45726 -3.18454 37959 ft 450 kts 46°
2026-04-28 11:53 37.50041 -3.12814 37954 ft 450 kts 46°
2026-04-28 11:53 37.54374 -3.07137 37958 ft 450 kts 46°
2026-04-28 11:54 37.58710 -3.01449 37960 ft 450 kts 47°
2026-04-28 11:54 37.59441 -3.00490 37957 ft 450 kts 47°